Location: D�rnast
(49.6426°N, 11.9755°E)
Time: 06:04:44
(UTC+00:00)

BlueWalker 3 - Pass Details

Date: 02 December 2022
Orbit: 499 x 517 km, 53.2° (Epoch: 28 January)

Event Time Altitude Azimuth Distance (km) Brightness Sun altitude
Rises 15:53:35 0° 260° (W) 2,633 7.4 -6.3°
Reaches altitude 10° 15:55:49 10° 264° (W) 1,743 6.0 -6.6°
Maximum altitude 15:59:44 61° 345° (NNW) 586 2.2 -7.2°
Drops below altitude 10° 16:03:34 10° 67° (ENE) 1,716 3.9 -7.8°
Enters shadow 16:03:37 10° 67° (ENE) 1,732 4.0 -7.8°
